• In Portugal
  • List of Countries
  • For 7 days
  • Water Temperature
  • Satellite Maps
  • Weather Map
  • Weather Widgets
  • user-avatar
    Login

    Hourly Weather Halhgol

    Today, 22 September, Saturday

    Time Temperature Precipitation Wind Pressure Humidity
    00:00 +3°C° 0.1 mm 3 mps 694 mmHg 83%
    01:00 +3°C° 0.1 mm 4 mps 694 mmHg 85%
    02:00 +3°C° 0 mm 4 mps 694 mmHg 87%
    03:00 +3°C° 0.1 mm 4 mps 694 mmHg 90%
    04:00 +2°C° 0.1 mm 5 mps 694 mmHg 92%
    05:00 +1°C° 0.1 mm 5 mps 694 mmHg 94%
    06:00 +2°C° 0.1 mm 5 mps 694 mmHg 92%
    07:00 +3°C° 0.1 mm 6 mps 694 mmHg 91%
    08:00 +3°C° 0 mm 5 mps 694 mmHg 88%
    09:00 +5°C° 0.4 mm 5 mps 694 mmHg 87%
    10:00 +4°C° 0.4 mm 6 mps 694 mmHg 86%
    11:00 +4°C° 0.4 mm 6 mps 694 mmHg 85%
    12:00 +4°C° 1.3 mm 6 mps 694 mmHg 86%
    13:00 +4°C° 1.3 mm 6 mps 694 mmHg 86%
    14:00 +4°C° 0 mm 7 mps 694 mmHg 87%
    15:00 +4°C° 0.8 mm 6 mps 694 mmHg 88%
    16:00 +5°C° 0.8 mm 5 mps 694 mmHg 89%
    17:00 +5°C° 0.8 mm 4 mps 694 mmHg 90%
    18:00 +5°C° 0.1 mm 3 mps 694 mmHg 92%
    19:00 +4°C° 0.1 mm 3 mps 694 mmHg 93%
    20:00 +5°C° 0.1 mm 2 mps 695 mmHg 95%
    21:00 +4°C° 0 mm 3 mps 695 mmHg 94%
    22:00 +3°C° 0 mm 3 mps 696 mmHg 94%
    23:00 +3°C° 0 mm 3 mps 696 mmHg 93%

    Tomorrow, 23 September, Sunday

    Time Temperature Precipitation Wind Pressure Humidity
    00:00 +2°C° 0 mm 3 mps 697 mmHg 94%
    01:00 +2°C° 0 mm 3 mps 697 mmHg 94%
    02:00 +2°C° 0 mm 3 mps 698 mmHg 95%
    03:00 +3°C° 0.1 mm 4 mps 698 mmHg 95%
    04:00 +3°C° 0.1 mm 4 mps 699 mmHg 96%
    05:00 +4°C° 0.1 mm 4 mps 699 mmHg 96%
    06:00 +4°C° 0 mm 4 mps 700 mmHg 94%
    07:00 +3°C° 0 mm 5 mps 700 mmHg 93%
    08:00 +5°C° 0 mm 5 mps 700 mmHg 91%
    09:00 +5°C° 0.1 mm 5 mps 701 mmHg 90%
    10:00 +6°C° 0.1 mm 5 mps 701 mmHg 88%
    11:00 +6°C° 0.1 mm 5 mps 701 mmHg 87%
    12:00 +7°C° 0.1 mm 5 mps 701 mmHg 84%
    13:00 +8°C° 0.1 mm 6 mps 701 mmHg 81%
    14:00 +8°C° 0.1 mm 6 mps 701 mmHg 78%
    15:00 +8°C° 0.1 mm 5 mps 701 mmHg 78%
    16:00 +9°C° 0.1 mm 5 mps 702 mmHg 77%
    17:00 +9°C° 0.1 mm 5 mps 702 mmHg 76%
    18:00 +8°C° 0.1 mm 4 mps 702 mmHg 80%
    19:00 +7°C° 0.1 mm 4 mps 703 mmHg 83%
    20:00 +6°C° 0.1 mm 4 mps 703 mmHg 87%
    21:00 +5°C° 0 mm 3 mps 703 mmHg 88%
    22:00 +5°C° 0 mm 3 mps 703 mmHg 89%
    23:00 +4°C° 0 mm 3 mps 704 mmHg 90%

    Day after tomorrow, 24 September, Monday

    Time Temperature Precipitation Wind Pressure Humidity
    00:00 +5°C° 0 mm 2 mps 704 mmHg 90%
    01:00 +5°C° 0 mm 2 mps 704 mmHg 90%
    02:00 +5°C° 0 mm 2 mps 704 mmHg 90%
    03:00 +4°C° 0 mm 2 mps 704 mmHg 90%
    04:00 +4°C° 0 mm 2 mps 704 mmHg 90%
    05:00 +5°C° 0 mm 1 mps 704 mmHg 90%
    06:00 +5°C° 0 mm 2 mps 705 mmHg 86%
    07:00 +6°C° 0 mm 2 mps 705 mmHg 82%
    08:00 +7°C° 0 mm 2 mps 705 mmHg 77%
    09:00 +8°C° 0 mm 2 mps 705 mmHg 70%
    10:00 +10°C° 0 mm 3 mps 705 mmHg 64%
    11:00 +11°C° 0 mm 3 mps 705 mmHg 57%
    12:00 +12°C° 0 mm 3 mps 705 mmHg 54%
    13:00 +12°C° 0 mm 3 mps 705 mmHg 51%
    14:00 +13°C° 0 mm 3 mps 704 mmHg 48%
    15:00 +12°C° 0 mm 3 mps 704 mmHg 51%
    16:00 +12°C° 0 mm 3 mps 704 mmHg 54%
    17:00 +12°C° 0 mm 2 mps 704 mmHg 56%
    18:00 +10°C° 0 mm 2 mps 704 mmHg 59%
    19:00 +8°C° 0 mm 2 mps 704 mmHg 62%
    20:00 +7°C° 0 mm 1 mps 704 mmHg 64%
    21:00 +7°C° 0 mm 1 mps 704 mmHg 65%
    22:00 +6°C° 0 mm 0 mps 704 mmHg 66%
    23:00 +5°C° 0 mm 0 mps 705 mmHg 66%

    25 September, Tuesday

    Time Temperature Precipitation Wind Pressure Humidity
    00:00 +5°C° 0 mm 0 mps 704 mmHg 67%
    01:00 +6°C° 0 mm 1 mps 704 mmHg 68%
    02:00 +6°C° 0 mm 1 mps 704 mmHg 69%
    03:00 +5°C° 0 mm 1 mps 704 mmHg 70%
    04:00 +5°C° 0 mm 1 mps 704 mmHg 72%
    05:00 +5°C° 0 mm 1 mps 704 mmHg 74%
    06:00 +6°C° 0 mm 1 mps 705 mmHg 71%
    07:00 +6°C° 0 mm 2 mps 705 mmHg 69%
    08:00 +7°C° 0 mm 2 mps 705 mmHg 66%
    09:00 +9°C° 0 mm 2 mps 705 mmHg 59%
    10:00 +12°C° 0 mm 2 mps 705 mmHg 53%
    11:00 +13°C° 0 mm 2 mps 704 mmHg 47%
    12:00 +14°C° 0 mm 2 mps 704 mmHg 44%
    13:00 +15°C° 0 mm 1 mps 704 mmHg 42%
    14:00 +15°C° 0 mm 1 mps 703 mmHg 39%
    15:00 +15°C° 0 mm 1 mps 703 mmHg 43%
    16:00 +15°C° 0 mm 1 mps 703 mmHg 47%
    17:00 +14°C° 0 mm 1 mps 703 mmHg 51%
    18:00 +13°C° 0 mm 1 mps 703 mmHg 52%
    19:00 +11°C° 0 mm 1 mps 703 mmHg 54%
    20:00 +9°C° 0 mm 1 mps 703 mmHg 56%
    21:00 +8°C° 0 mm 2 mps 703 mmHg 58%
    22:00 +8°C° 0 mm 2 mps 703 mmHg 60%
    23:00 +7°C° 0 mm 3 mps 703 mmHg 62%

    26 September, Wednesday

    Time Temperature Precipitation Wind Pressure Humidity
    00:00 +7°C° 0 mm 3 mps 703 mmHg 64%
    01:00 +7°C° 0 mm 3 mps 703 mmHg 65%
    02:00 +5°C° 0 mm 3 mps 703 mmHg 67%
    03:00 +5°C° 0 mm 3 mps 703 mmHg 68%
    04:00 +5°C° 0 mm 3 mps 703 mmHg 68%
    05:00 +5°C° 0 mm 3 mps 703 mmHg 69%
    06:00 +7°C° 0 mm 3 mps 703 mmHg 67%
    07:00 +8°C° 0 mm 3 mps 703 mmHg 65%
    08:00 +8°C° 0 mm 4 mps 704 mmHg 63%
    09:00 +11°C° 0 mm 4 mps 704 mmHg 58%
    10:00 +13°C° 0 mm 4 mps 704 mmHg 52%
    11:00 +15°C° 0 mm 4 mps 704 mmHg 47%
    12:00 +15°C° 0 mm 4 mps 703 mmHg 46%
    13:00 +17°C° 0 mm 4 mps 703 mmHg 45%
    14:00 +18°C° 0 mm 4 mps 702 mmHg 44%
    15:00 +17°C° 0 mm 3 mps 702 mmHg 49%
    16:00 +16°C° 0 mm 3 mps 702 mmHg 55%
    17:00 +16°C° 0 mm 3 mps 702 mmHg 60%
    18:00 +13°C° 0 mm 3 mps 702 mmHg 64%
    19:00 +12°C° 0 mm 4 mps 702 mmHg 68%
    20:00 +10°C° 0 mm 5 mps 702 mmHg 72%
    21:00 +9°C° 0 mm 5 mps 702 mmHg 71%
    22:00 +9°C° 0 mm 5 mps 701 mmHg 71%
    23:00 +9°C° 0 mm 6 mps 701 mmHg 70%

    27 September, Thursday

    Time Temperature Precipitation Wind Pressure Humidity
    00:00 +8°C° 0 mm 6 mps 701 mmHg 72%
    01:00 +8°C° 0 mm 5 mps 701 mmHg 73%
    02:00 +8°C° 0 mm 5 mps 700 mmHg 75%
    03:00 +8°C° 0 mm 6 mps 700 mmHg 74%
    04:00 +8°C° 0 mm 6 mps 700 mmHg 74%
    05:00 +7°C° 0 mm 6 mps 700 mmHg 73%
    06:00 +8°C° 0 mm 7 mps 700 mmHg 72%
    07:00 +9°C° 0 mm 7 mps 700 mmHg 72%
    08:00 +10°C° 0 mm 8 mps 699 mmHg 71%
    09:00 +12°C° 0 mm 8 mps 699 mmHg 68%
    10:00 +15°C° 0 mm 9 mps 699 mmHg 66%
    11:00 +16°C° 0 mm 9 mps 699 mmHg 64%
    12:00 +17°C° 0 mm 9 mps 698 mmHg 63%
    13:00 +17°C° 0 mm 9 mps 697 mmHg 63%
    14:00 +17°C° 0 mm 9 mps 696 mmHg 63%
    15:00 +16°C° 0.8 mm 9 mps 695 mmHg 68%
    16:00 +15°C° 0.8 mm 9 mps 695 mmHg 73%
    17:00 +13°C° 0.8 mm 9 mps 695 mmHg 79%
    18:00 +13°C° 1.4 mm 9 mps 694 mmHg 80%
    19:00 +12°C° 1.4 mm 9 mps 694 mmHg 82%
    20:00 +12°C° 1.4 mm 9 mps 694 mmHg 83%
    21:00 +11°C° 0.2 mm 9 mps 693 mmHg 81%
    22:00 +11°C° 0.2 mm 8 mps 693 mmHg 79%
    23:00 +11°C° 0.2 mm 8 mps 693 mmHg 77%
    Show more